Weather History for Worland, WY

Change the Weather History Date:

Saturday, January 12, 2013

  Actual Average Record
Temperature  
Mean Temperature 4 °F 17 °F  
Max Temperature 10 °F 30 °F 50 °F (1980)
Min Temperature -3 °F 3 °F -38 °F (1963)
Degree Days  
Heating Degree Days 61 48  
Month to date heating degree days 623 586  
Since 1 July heating degree days 3365 3949  
Cooling Degree Days 0 0  
Month to date cooling degree days 0 0  
Year to date cooling degree days 0 0  
Moisture  
Dew Point 0 °F    
Average Humidity 79    
Maximum Humidity 91    
Minimum Humidity 66    
Precipitation  
Precipitation 0.01 in 0.01 in 0.36 in (1972)
Month to date precipitation 0.04 0.09  
Year to date precipitation 0.04 0.09  
Sea Level Pressure  
Sea Level Pressure 30.14 in    
Wind  
Wind Speed 3 mph (SSW)    
Max Wind Speed 67 mph    
Max Gust Speed 79 mph    
Visibility 4 miles    
Events Snow    
T = Trace of Precipitation, MM = Missing Value Source: NWS Daily Summary

Daily Weather History Graph

Daily Weather History Graph

Search for Another Location

Airport:

Trip Planner

Search our weather history database for the weather conditions in past years. The results will help you decide how hot, cold, wet, or windy it might be!

Date:

Astronomy

Jan. 12, 2013 Rise Set
Actual Time 7:44 AM MST 4:56 PM MST
Civil Twilight 7:12 AM MST 5:28 PM MST
Nautical Twilight 6:36 AM MST 6:04 PM MST
Astronomical Twilight 6:01 AM MST 6:39 PM MST
Moon 8:01 AM MST (1/12) 6:33 PM MST (1/12)
Length of Visible Light 10h 16m
Length of Day
9h 12m
New Moon, 1% of the Moon is Illuminated
Jan 12
New Moon
Jan 18
First Quarter
Jan 26
Full
Feb 3
Last Quarter
Feb 10
New

Hourly Weather History & Observations

Time (MST) Temp. Windchill Dew Point Humidity Pressure Visibility Wind Dir Wind Speed Gust Speed Precip Events Conditions
12:53 AM 6.1 °F -7.8 °F 1.9 °F 83% 30.24 in 1.5 mi NW 9.2 mph - 0.00 in Snow Light Snow
1:38 AM 6.8 °F -0.1 °F 3.2 °F 85% 30.01 in 2.0 mi WNW 3.5 mph - 0.00 in Snow Light Snow
1:49 AM 6.8 °F -2.0 °F 1.4 °F 79% 30.01 in 1.8 mi West 4.6 mph - 0.00 in Snow Light Snow
1:53 AM 6.1 °F -0.9 °F 1.9 °F 83% 30.25 in 1.8 mi West 3.5 mph - 0.00 in Snow Light Snow
2:26 AM 6.8 °F -2.0 °F 1.4 °F 79% 30.02 in 2.5 mi West 4.6 mph - 0.00 in Snow Light Snow
2:37 AM 5.0 °F -2.1 °F 1.4 °F 85% 30.02 in 3.0 mi West 3.5 mph - 0.00 in Snow Light Snow
2:53 AM 3.9 °F -3.4 °F 1.0 °F 88% 30.26 in 3.0 mi West 3.5 mph - 0.00 in Snow Light Snow
3:11 AM 3.2 °F -7.8 °F 1.4 °F 92% 30.02 in 2.5 mi SW 5.8 mph - 0.00 in Snow Light Snow
3:19 AM 3.2 °F -6.2 °F 1.4 °F 92% 30.02 in 3.0 mi SW 4.6 mph - 0.00 in Snow Light Snow
3:34 AM 3.2 °F -9.1 °F -0.4 °F 85% 30.02 in 2.5 mi WSW 6.9 mph - 0.00 in Snow Light Snow
3:53 AM 3.0 °F -9.3 °F -0.0 °F 87% 30.26 in 2.5 mi WSW 6.9 mph - 0.00 in Snow Light Snow
4:01 AM 1.4 °F -9.9 °F -0.4 °F 92% 30.01 in 3.0 mi SW 5.8 mph - 0.00 in Snow Light Snow
4:15 AM 3.2 °F -9.1 °F -0.4 °F 85% 30.00 in 2.5 mi WSW 6.9 mph - 0.00 in Snow Light Snow
4:37 AM 1.4 °F -11.3 °F -0.4 °F 92% 30.00 in 4.0 mi WSW 6.9 mph - 0.00 in Snow Light Snow
4:53 AM 1.0 °F -10.3 °F -2.0 °F 87% 30.26 in 5.0 mi WSW 5.8 mph - 0.00 in   Overcast
5:06 AM 1.4 °F -9.9 °F -0.4 °F 92% 30.00 in 5.0 mi WSW 5.8 mph - N/A   Overcast
5:53 AM 3.0 °F -4.4 °F -0.9 °F 84% 30.27 in 9.0 mi SW 3.5 mph - N/A   Overcast
6:40 AM 3.2 °F -9.1 °F -0.4 °F 85% 30.02 in 2.5 mi SW 6.9 mph - 0.00 in Snow Light Snow
6:53 AM 3.0 °F -10.5 °F -0.9 °F 84% 30.27 in 3.0 mi SSW 8.1 mph - 0.00 in Snow Light Snow
7:34 AM 3.2 °F -7.8 °F -0.4 °F 85% 30.03 in 2.0 mi South 5.8 mph - 0.00 in Snow Light Snow
7:40 AM 3.2 °F -7.8 °F -0.4 °F 85% 30.03 in 1.8 mi South 5.8 mph - 0.00 in Snow Light Snow
7:53 AM 3.0 °F -9.3 °F -0.9 °F 84% 30.29 in 1.2 mi SSE 6.9 mph - 0.00 in Snow Light Snow
8:13 AM 3.2 °F -7.8 °F -0.4 °F 85% 30.05 in 2.0 mi South 5.8 mph - 0.00 in Snow Light Snow
8:51 AM 3.2 °F -6.2 °F 1.4 °F 92% 30.05 in 1.5 mi South 4.6 mph - 0.00 in Snow Light Snow
8:53 AM 3.9 °F -3.4 °F 1.0 °F 88% 30.30 in 1.5 mi South 3.5 mph - 0.00 in Snow Light Snow
9:53 AM 5.0 °F - 1.9 °F 87% 30.31 in 1.5 mi Calm Calm - 0.01 in Snow Light Snow
10:25 AM 6.8 °F -2.0 °F 1.4 °F 79% 30.07 in 3.0 mi SSE 4.6 mph - 0.00 in Snow Light Snow
10:40 AM 6.8 °F -0.1 °F 1.4 °F 79% 30.07 in 1.8 mi SSE 3.5 mph - 0.00 in Snow Light Snow
10:53 AM 7.0 °F -3.3 °F 1.9 °F 80% 30.31 in 2.0 mi SSE 5.8 mph - 0.00 in   Haze
11:06 AM 6.8 °F -0.1 °F 1.4 °F 79% 30.06 in 4.0 mi SSE 3.5 mph - N/A   Haze
11:22 AM 6.8 °F -0.1 °F 1.4 °F 79% 30.06 in 7.0 mi SSE 3.5 mph - N/A   Overcast
11:53 AM 7.0 °F - 3.0 °F 84% 30.29 in 10.0 mi Calm Calm - N/A   Overcast
12:53 PM 8.1 °F - 3.0 °F 80% 30.27 in 2.5 mi Calm Calm - 0.00 in Snow Light Snow
12:59 PM 8.6 °F - 3.2 °F 79% 30.03 in 3.0 mi Calm Calm - 0.00 in Snow Light Snow
1:41 PM 10.4 °F - 1.4 °F 67% 30.02 in 7.0 mi Calm Calm - 0.00 in   Overcast
1:53 PM 10.0 °F - 1.0 °F 67% 30.26 in 8.0 mi Calm Calm - 0.00 in   Overcast
2:53 PM 10.0 °F - 1.0 °F 67% 30.28 in 10.0 mi Calm Calm - N/A   Scattered Clouds
3:28 PM 8.6 °F - -0.4 °F 67% 30.04 in 10.0 mi Calm Calm - N/A   Mostly Cloudy
3:36 PM 8.6 °F - 1.4 °F 73% 30.04 in 10.0 mi Calm Calm - N/A   Scattered Clouds
3:53 PM 8.1 °F 1.4 °F -0.0 °F 70% 30.29 in 10.0 mi ENE 3.5 mph - N/A   Clear
4:53 PM -2.0 °F -12.2 °F -5.1 °F 87% 30.34 in 10.0 mi East 4.6 mph - N/A   Clear
6:53 PM 1.9 °F -5.6 °F -0.9 °F 88% 30.32 in 3.0 mi South 3.5 mph - 0.00 in Snow Light Snow
7:13 PM 1.4 °F - -2.2 °F 85% 30.06 in 2.5 mi Calm Calm - 0.00 in Snow Light Snow
7:21 PM 1.4 °F - -2.2 °F 85% 30.06 in 4.0 mi Calm Calm - 0.00 in Snow Light Snow
7:53 PM 1.9 °F - -2.0 °F 83% 30.33 in 2.5 mi Calm Calm - 0.00 in Snow Light Snow
8:01 PM 1.4 °F -6.2 °F -2.2 °F 85% 30.06 in 2.5 mi South 3.5 mph - 0.00 in Snow Light Snow
8:14 PM 1.4 °F -8.3 °F -2.2 °F 85% 30.06 in 4.0 mi South 4.6 mph - 0.00 in Snow Light Snow
8:53 PM 1.9 °F -9.2 °F -2.0 °F 83% 30.33 in 3.0 mi South 5.8 mph - 0.00 in Snow Light Snow
9:04 PM 1.4 °F -9.9 °F -2.2 °F 85% 30.06 in 2.5 mi South 5.8 mph - 0.00 in Snow Light Snow
9:10 PM 1.4 °F -8.3 °F -2.2 °F 85% 30.06 in 3.0 mi South 4.6 mph - 0.00 in Snow Light Snow
9:53 PM -0.0 °F -9.9 °F -4.0 °F 83% 30.32 in 4.0 mi South 4.6 mph - 0.00 in Snow Light Snow
10:32 PM -2.2 °F - -5.8 °F 85% 30.07 in 7.0 mi Calm Calm - 0.00 in   Mostly Cloudy
10:48 PM -2.2 °F - -5.8 °F 85% 30.07 in 8.0 mi Calm Calm - 0.00 in   Mostly Cloudy
10:53 PM -2.9 °F - -6.0 °F 87% 30.34 in 10.0 mi Calm Calm - 0.00 in   Mostly Cloudy
11:53 PM -0.9 °F - -6.0 °F 79% 30.35 in 7.0 mi Calm Calm - 0.00 in   Overcast